Startpagina
METAR-TAF:

METAR-TAF

Vliegvelden :

Productieplatform

K14-fa-1c, Nederland

breedte: 53-16-10N, lengte: 3-37-40E, hoogte: 28 m

Actueel weer

Dit bericht is 31 minuten geleden gemaakt, om 14:55 UTC
Wind 2 kt uit variabele richting
Temperatuur 4°C
Vochtigheid 60%
Druk 1020 hPa
Zicht 10 km of meer

METAR: EHKV 201455Z AUTO VRB02KT 9999 NSC 04/M03 Q1020 W///H///

Tijdstip: 16:26 (15:26 UTC)


TAF: ontbreekt

Waarnemingen en weersverwachtingen van meer dan 4000 vliegvelden (METAR en TAF).

De beschikbare stations zijn de gele en rode punten op de kaart.

Ga met uw muis naar het station om de naam te zien.

Klik dan om waarnemingen en weersverwachtingen te zien.

kaart wijzigen: klik op de groene knoppen met een zwart kruis om in te zoomen, op de groene knop met een streepje om uit te zoomen of op de groene pijlen voor aangrenzende kaarten.


METAR-TAF: